sat.trackr.live / text

‹ back to catalog

NIGCOMSAT 1R

NORAD 38014 · 2011-077A

PAYLOAD ACTIVE UNKNOWN

§ Identity

Operator
Country
NIG
Launch date
2011-12-19
Launch site
XICLF
Launch vehicle
Mass (kg)
RCS (m²)
18.49

Purposes: comms

External: N2YO · Heavens-Above · Gunter

§ Orbital elements

Epoch: 2026-05-25T03:56:46.097088Z

Period
1,436.05 min
Inclination
0.0483°
Eccentricity
0.0002264
Mean motion
1.00274923 rev/d
Perigee alt
35,776.2 km
Apogee alt
35,795.3 km
Semi-major
42,163.9 km
B*
0.0000e+0
RAAN
116.1391°
Arg perigee
239.5819°
Mean anomaly
348.7507°
Rev number
5,272

§ Raw data

NIGCOMSAT 1R1 38014U 11077A   26145.16442242  .00000142  00000+0  00000+0 0  99902 38014   0.0483 116.1391 0002264 239.5819 348.7507  1.00274923 52724

JSON: /api/v1/satellites/38014 · /tle

For live sub-satellite position, see the globe view (requires WebGL).

§ Visibility from observer

Set your observer location to see the next 7 days of passes ≥ 10°. The values pass through the URL so the page stays shareable.

No JS? Fill the form by hand. The geolocation button needs JavaScript.